Hourly Data Report for March 17, 2012

BAGOTVILLE A
QUEBEC

48°20'00.000" N
71°00'00.000" W
159.10 m
7060400
71727
YBG

Download Data

Hourly Data (March 2012)
Hourly Data Report for March 17, 2012
TIME
LST
Temp Definition
°C
Dew Point Definition
°C
Rel Hum Definition
%
Precip. Amount Definition
mm

Wind Dir Definition
10's deg

Wind Spd Definition
km/h
Visibility Definition
km
Stn Press Definition
kPa
Hmdx Definition


Wind Chill Definition


Weather Definition


00:00 -1.5 -1.7 99   1 6 0.2 100.43   -4 Freezing Fog
01:00 -1.4 -1.6 99   2 4 0.0 100.48   -3 Freezing Fog
02:00 -1.5 -1.7 99     0 0.0 100.49     Freezing Fog
03:00 -2.0 -2.0 100   17 4 0.2 100.47   -3 Freezing Fog
04:00 -2.5 -2.6 99   10 6 0.2 100.50   -5 Freezing Fog
05:00 -2.1 -2.1 100     0 0.2 100.58     Freezing Fog
06:00 -2.5 -2.6 99   13 7 0.2 100.61   -5 Freezing Fog
07:00 -2.0 -2.0 100   11 4 0.2 100.66   -3 Freezing Fog
08:00 -1.4 -1.6 99   10 6 0.2 100.69   -4 Freezing Fog
09:00 -1.0 -1.1 99   13 11 0.2 100.61   -5 Freezing Fog
10:00 2.0 0.1 87   9 6 40.2 100.62     Mostly Cloudy
11:00 4.0 0.0 75   8 9 40.2 100.56     Mainly Clear
12:00 6.8 -0.9 58   9 4 40.2 100.51     Mainly Clear
13:00 8.5 -0.4 53     0 40.2 100.41     Mainly Clear
14:00 9.5 0.1 52   11 4 40.2 100.28     Mainly Clear
15:00 10.2 -0.6 47   10 7 40.2 100.22     Mainly Clear
16:00 10.8 -0.6 45   7 7 40.2 100.14     Mostly Cloudy
17:00 9.9 -0.7 48     0 40.2 100.07     Cloudy
18:00 7.2 -0.1 60   13 4 40.2 100.05     Cloudy
19:00 4.8 -0.9 67   14 9 24.1 100.02     Cloudy
20:00 4.5 0.0 73   19 6 19.3 100.11     Rain Showers
21:00 6.5 0.9 67   32 11 16.1 100.10     Rain Showers
22:00 4.4 1.9 84   11 4 24.1 99.98     Cloudy
23:00 3.3 1.7 89     0 24.1 99.88     Mainly Clear

Notes on Data Quality.

Legend

  • E = Estimated
  • M = Missing
  • NA = Not Available*
  • [empty] = Indicates an unobserved value
Date modified: